Flag for Lithuania Weather past 2 weeks in Klaipėda, Lithuania

37 °F


Feels Like: 30 °F
Forecast: 42 / 45 °F
Wind: 10 mph from South

Location: Palanga Intl.

Current Time: Nov 27, 2015 at 1:44:52 AM

Latest Report: Nov 27, 2015 at 12:50 AM

Visibility: 2 mi

Pressure: 30.04 "Hg

Humidity: 87%

Dew point: 34 °F

Location of KlaipėdaLocation

Historic Weather in Klaipėda — Graph


Klaipėda temperature yesterday

Maximum temperature yesterday: 36 °F (at 7:50 PM)
Minimum temperature yesterday: 32 °F (at 12:20 AM)
Average temperature yesterday: 33 °F

Past Weeks' High & Low Weather Summary

High54 °F (Nov 12, 1:50 PM)100% (Nov 12, 3:20 AM)30.12 "Hg (Nov 12, 3:20 AM)
Low23 °F (Nov 23, 6:20 AM)53% (Nov 24, 6:20 AM)29.21 "Hg (Nov 18, 8:50 AM)
Average42 °F87%29.69 "Hg
* Reported Nov 12 12:20 AM — Nov 27 12:50 AM, Klaipėda, Weather by CustomWeather, © 2015

Note: Actual official high and low records may vary slightly from our data, if they occured in-between our weather recording intervals... More about our weather records


Klaipėda weather history for previous 24 hours

Time TempWeatherWind HumidityBarometerVisibility
12:50 AM
Fri, Nov 27
37 °FFog.10 mph87%30.04 "Hg2 mi
11:50 PM
Thu, Nov 26
36 °FFog.12 mph93%30.04 "Hg2 mi
11:20 PM36 °FFog.10 mph93%30.04 "Hg2 mi
10:50 PM36 °FFog.12 mph93%30.04 "Hg2 mi
10:20 PM36 °FFog.12 mph93%30.04 "Hg3 mi
9:50 PM36 °FFog.12 mph93%30.04 "Hg3 mi
9:20 PM36 °FFog.12 mph93%30.04 "Hg3 mi
8:50 PM36 °FFog.10 mph87%30.01 "Hg3 mi
8:20 PM36 °FFog.12 mph87%30.01 "Hg3 mi
7:50 PM36 °FFog.9 mph87%30.01 "Hg3 mi
7:20 PM34 °FFog.10 mph93%30.01 "Hg3 mi
6:50 PM34 °FFog.10 mph93%29.98 "Hg3 mi
6:20 PM34 °FOvercast.12 mph87%29.98 "Hg4 mi
5:50 PM34 °FOvercast.12 mph87%29.98 "Hg4 mi
5:20 PM34 °FPassing clouds.12 mph87%29.98 "Hg4 mi
4:50 PM34 °FBroken clouds.9 mph87%29.98 "Hg4 mi
4:20 PM32 °FPartly sunny.10 mph93%29.95 "Hg4 mi
3:50 PM32 °FPartly sunny.10 mph93%29.95 "Hg4 mi
3:20 PM32 °FOvercast.12 mph93%29.95 "Hg4 mi
2:50 PM34 °FBroken clouds.13 mph81%29.92 "Hg4 mi
2:20 PM34 °FPartly sunny.14 mph81%29.92 "Hg4 mi
1:50 PM34 °FOvercast.13 mph81%29.92 "Hg4 mi
1:20 PM34 °FOvercast.10 mph81%29.92 "Hg4 mi
12:50 PM32 °FOvercast.12 mph87%29.92 "Hg4 mi
12:20 PM32 °FMore clouds than sun.8 mph87%29.89 "Hg4 mi
11:50 AM32 °FOvercast.9 mph87%29.89 "Hg4 mi
11:20 AM32 °FOvercast.10 mph87%29.89 "Hg4 mi
10:50 AM32 °FOvercast.10 mph87%29.89 "Hg4 mi
10:20 AM32 °FOvercast.10 mph87%29.86 "Hg4 mi
9:50 AM32 °FOvercast.10 mph87%29.86 "Hg5 mi
9:20 AM32 °FLight snow. Passing clouds.12 mph87%29.86 "Hg5 mi
8:20 AM32 °FPassing clouds.12 mph87%29.83 "Hg5 mi
7:50 AM32 °FPassing clouds.12 mph80%29.83 "Hg5 mi
7:20 AM32 °FPassing clouds.10 mph80%29.80 "Hg5 mi
6:50 AM32 °FLight snow. Overcast.10 mph80%29.80 "Hg5 mi
6:20 AM32 °FLight snow. Overcast.12 mph87%29.80 "Hg5 mi
5:50 AM32 °FPartly cloudy.13 mph80%29.80 "Hg5 mi
5:20 AM32 °FPassing clouds.12 mph80%29.77 "Hg6 mi
4:50 AM32 °FPassing clouds.12 mph80%29.77 "Hg6 mi
4:20 AM32 °FPartly cloudy.10 mph80%29.77 "HgN/A
3:50 AM32 °FPassing clouds.12 mph80%29.77 "HgN/A
3:20 AM32 °FPassing clouds.12 mph80%29.77 "HgN/A
2:20 AM32 °FPassing clouds.13 mph80%29.77 "HgN/A
1:50 AM32 °FPassing clouds.12 mph80%29.77 "HgN/A
1:20 AM32 °FPassing clouds.14 mph80%29.77 "HgN/A
Weather by CustomWeather, © 2015

See weather overviewHow to use our weather pages